Zurück zum Katalog

SL-16 DEB

AktivLEO
NORAD 29098·DEBRIS·🇷🇺 Russia

Gestartet Mar 26, 1993 von Baikonur Cosmodrome

Loading…

Nächste Überflüge (nächste 24 Stunden)

TLE

AktuellSource: Space-Track

Epoche: Sep 14, 2026, 14:08 UTC

1 29098U 93016AM  26257.58922516  .00000250  00000-0  14135-3 0  9991
2 29098  70.9256 336.7379 0079739  61.7894   4.1605 14.17872933683465

Verfolge SL-16 DEB in Echtzeit mit AllMySat

Download on the App Store